Wetbulb
44.30 39.55 36.73 39.69 41.55 42.42 42.90 42.12 42.59 45.21 49.92 47.67 47.22 47.29 49.76 51.35 51.04 49.89 49.34 48.57 50.11 50.46 51.97 53.07 53.76 54.91 57.15 58.77 58.92 59.83 60.49 61.16 61.59 60.86 57.41 55.27 53.14 52.34 51.58 51.14 50.29 49.28 48.78 49.17
39.72 35.64 40.75 43.16 43.04 41.81 41.55 40.91 41.75 46.23 49.25 47.85 47.49 46.64 49.97 49.96 50.52 50.96 50.25 49.08 49.67 49.75 50.15 51.51 52.52 52.30 54.43 55.81 57.26 59.09 58.97 58.07 57.82 57.06 55.57 54.72 52.20 51.18 50.42 49.58 48.34 47.04 45.90 45.72
35.77 38.49 42.64 41.38 40.35 39.68 39.76 39.94 41.68 42.64 47.14 47.43 45.37 43.25 45.14 49.06 50.71 51.04 52.26 50.35 51.08 49.95 49.32 49.95 50.24 50.95 51.61 52.28 52.86 54.53 55.02 55.63 55.81 55.30 54.75 53.31 52.52 50.66 48.49 47.78 46.41 45.58 44.09 43.33
37.94 41.73 39.81 39.50 38.14 40.37 36.31 44.12 44.14 44.25 43.12 38.45 44.60 33.05 42.69 46.84 48.31 49.57 47.44 47.84 49.90 49.72 49.87 50.51 50.40 50.18 50.60 51.48 52.62 53.30 53.91 54.16 54.61 54.10 52.70 50.52 47.77 45.85 46.42 45.85 45.53 44.33 43.35 41.72
35.17 37.70 37.49 36.78 38.91 41.57 38.69 45.14 43.10 44.89 43.12 40.35 41.99 37.68 41.04 46.08 45.69 44.83 45.31 47.28 49.62 49.58 49.66 49.57 50.14 51.41 51.66 51.57 50.52 50.50 50.78 50.87 50.90 50.37 49.54 47.83 46.07 45.49 45.18 44.44 42.90 42.14 41.72 40.79
37.92 42.94 40.96 39.38 41.40 41.78 44.10 41.35 42.69 44.58 42.68 36.19 40.92 38.89 38.52 42.72 44.59 45.04 46.04 47.90 49.49 49.31 49.25 49.74 50.56 51.27 50.58 50.49 49.73 48.72 48.37 48.41 48.42 47.73 47.02 45.86 44.35 43.58 42.28 40.90 39.99 39.66 39.88 39.78
36.26 36.66 40.21 40.69 39.39 41.31 42.11 39.60 34.75 33.08 34.28 33.43 41.83 39.37 40.07 42.27 46.06 47.57 46.96 48.04 48.92 49.30 49.03 48.92 48.60 48.85 49.18 48.66 48.20 47.95 47.08 46.01 46.02 45.19 44.33 43.58 42.30 40.85 38.97 38.60 37.83 37.12 37.25 37.12
29.52 27.33 37.00 39.21 38.84 38.16 39.76 39.11 32.95 29.02 31.16 32.91 41.80 35.22 39.77 45.58 46.57 48.06 49.18 49.18 49.23 48.81 48.66 48.47 48.53 48.48 48.66 48.60 46.94 46.31 45.28 44.11 43.76 42.72 41.65 40.99 40.73 39.46 38.46 37.65 37.00 36.19 35.91 35.70
32.03 30.94 39.87 42.27 41.21 43.14 38.32 33.63 40.39 37.55 39.07 34.50 35.19 38.49 41.25 44.89 44.20 45.93 47.45 48.48 48.01 48.54 48.57 48.38 48.80 48.92 48.35 47.19 46.55 45.49 44.02 43.09 42.39 41.32 39.76 38.46 37.99 37.50 36.86 36.45 36.29 35.85 35.63 37.49
34.83 31.53 39.68 41.05 44.16 44.80 42.39 45.10 37.20 37.87 31.40 28.36 33.63 35.69 36.30 40.31 41.61 43.86 46.10 46.81 47.88 48.64 48.62 48.65 49.18 48.74 48.15 47.46 46.38 45.04 43.71 41.98 40.92 39.80 38.55 37.55 36.27 36.20 35.98 35.69 34.75 34.90 35.10 35.17
36.76 33.76 35.59 38.34 40.90 39.03 40.43 40.51 41.57 41.30 38.84 32.24 29.52 33.45 42.91 42.30 44.22 43.45 45.00 47.93 48.42 48.48 48.69 48.97 48.98 48.68 47.27 46.18 45.41 43.89 42.04 40.58 39.41 38.79 37.56 36.02 35.52 35.76 35.30 34.66 34.37 34.21 34.21 34.00
37.74 36.03 32.94 35.14 40.89 45.74 44.67 41.90 42.57 37.13 34.63 35.72 34.46 32.98 43.92 43.92 44.88 45.51 45.05 48.79 49.25 49.32 48.98 48.99 48.37 47.26 45.51 44.86 43.94 42.64 41.44 39.74 38.69 37.90 36.39 35.68 35.59 35.15 34.18 33.76 33.87 34.07 33.20 33.48
38.30 34.93 31.83 32.86 39.42 43.72 42.07 43.42 43.65 41.96 40.38 35.24 31.79 32.72 44.14 43.84 43.97 45.04 45.06 47.45 49.12 48.89 47.88 47.89 47.60 46.22 44.66 44.15 43.11 42.22 40.97 38.38 37.63 36.92 35.75 35.17 34.51 33.63 33.04 33.22 33.47 33.61 33.18 32.44
46.03 40.15 34.14 33.25 36.73 40.42 39.47 41.68 42.98 40.94 35.37 35.71 35.67 34.97 40.04 42.77 43.50 44.45 45.02 46.41 48.15 48.45 48.36 47.45 46.95 45.28 44.41 43.80 42.66 41.28 39.28 37.65 36.62 35.89 35.03 33.83 32.78 32.72 32.57 32.83 33.29 33.57 32.60 31.67
40.47 38.23 39.75 41.42 42.68 42.65 41.89 41.36 41.83 40.53 40.84 35.17 37.83 38.85 40.70 43.08 43.41 44.21 45.09 46.85 47.57 47.59 47.61 46.98 45.97 44.99 43.90 42.59 41.36 39.98 38.15 36.55 35.76 34.76 33.96 32.71 33.17 33.41 32.87 33.18 32.94 32.52 31.93 32.05
42.50 37.57 40.35 38.31 41.38 42.04 40.54 42.46 42.47 42.19 41.66 40.82 42.53 40.40 45.68 45.07 45.46 44.56 44.25 45.81 46.90 47.30 47.51 46.89 46.78 45.41 43.37 41.17 39.67 38.70 36.67 35.17 34.98 33.62 32.91 33.62 33.37 33.26 32.76 32.37 31.60 31.16 30.91 30.78
39.98 39.47 37.57 32.13 38.42 38.84 34.31 39.66 41.81 42.10 43.11 43.08 39.83 43.83 44.57 42.99 45.04 44.57 44.71 46.18 46.18 46.41 46.66 46.32 46.30 45.08 42.86 40.68 39.23 36.30 35.00 34.45 33.54 33.26 33.30 33.28 33.30 32.52 31.72 31.29 30.48 29.83 29.22 29.25
39.61 39.24 38.89 32.83 34.03 26.34 36.92 40.65 42.93 42.45 43.59 44.07 44.09 44.57 45.11 44.30 44.33 44.57 45.42 44.92 44.94 46.15 46.36 46.19 45.72 44.08 41.66 39.84 37.85 35.53 34.13 33.64 33.41 32.68 32.80 33.04 32.45 31.20 30.51 29.58 28.95 28.19 28.41 28.10
44.26 41.48 36.85 33.21 31.88 37.09 39.26 38.77 38.86 39.44 40.08 44.42 43.71 45.23 43.53 43.37 41.95 40.67 43.60 44.78 44.10 44.76 45.50 45.26 44.07 41.37 39.02 37.36 35.11 34.28 33.78 32.72 32.44 32.06 31.61 31.62 31.23 29.42 29.01 28.07 27.18 27.33 27.39 27.37
44.09 42.90 39.51 32.77 29.53 27.48 35.69 40.03 43.13 43.16 34.47 41.97 44.26 44.36 42.21 42.07 36.11 37.76 42.11 43.27 42.80 43.51 43.65 42.16 40.49 39.24 37.33 35.09 34.41 33.32 32.02 31.38 30.31 30.36 30.23 30.49 30.15 29.04 27.50 26.99 26.47 27.25 27.41 27.97
37.92 38.69 36.27 35.38 32.91 35.62 40.79 41.29 42.70 33.22 35.44 41.63 43.24 44.02 42.56 38.93 40.02 41.92 42.34 41.42 41.71 40.80 39.61 39.12 38.22 36.56 34.86 34.74 34.33 31.99 30.40 28.82 29.45 30.03 30.23 30.11 29.39 28.09 27.29 26.63 26.82 26.78 26.17 26.09
37.08 35.89 35.37 36.00 33.84 31.40 43.12 40.93 36.94 40.51 41.18 42.44 43.30 43.04 40.98 40.87 41.31 40.82 40.37 39.58 38.83 37.93 38.19 37.97 35.56 33.84 34.09 34.59 32.41 29.49 27.95 28.65 29.40 29.71 29.46 28.67 27.78 28.75 29.65 26.52 26.40 26.39 25.13 23.93
36.62 39.43 38.02 38.41 37.45 42.10 41.85 41.17 42.80 44.32 42.37 42.57 41.51 42.25 42.20 40.73 39.86 39.82 38.78 37.97 37.70 37.13 37.12 36.54 34.20 32.74 32.56 32.21 30.84 27.79 27.46 28.98 28.98 28.10 27.50 27.23 27.27 27.54 27.86 26.33 25.42 24.71 24.29 23.14
40.05 41.62 37.14 38.00 38.10 39.24 40.70 41.98 43.05 44.78 43.62 43.47 43.21 42.55 42.12 40.36 40.50 39.32 38.95 37.94 37.11 36.58 35.97 35.10 32.73 31.10 29.47 28.56 29.11 28.15 28.50 29.04 28.34 26.77 25.95 26.00 25.54 27.12 26.50 26.52 25.95 24.36 23.11 23.16
37.69 38.62 37.89 36.22 37.76 39.55 40.33 41.13 41.98 42.15 42.35 41.89 42.14 42.13 41.55 41.25 40.18 40.34 39.71 38.79 37.71 36.44 35.39 34.57 32.85 31.09 28.68 28.44 28.08 28.21 28.80 28.36 26.20 24.98 24.59 25.19 25.89 25.38 24.76 25.45 24.86 24.22 24.88 26.28
39.30 38.37 36.89 36.93 42.10 40.80 40.27 41.70 42.48 41.34 41.15 41.31 40.80 39.74 40.76 40.45 39.63 39.54 38.71 39.07 37.82 35.92 35.19 34.05 32.40 29.61 28.75 28.46 27.99 28.22 28.60 26.95 25.24 23.80 24.13 24.07 23.91 24.04 23.99 23.18 24.73 30.26 31.38 32.01
MSLP
1012.28 1012.60 1011.10 1010.81 1010.95 1010.59 1010.21 1009.33 1008.28 1006.83 1006.13 1005.81 1004.97 1004.69 1004.53 1004.53 1004.46 1004.56 1004.67 1005.08 1005.66 1006.69 1007.61 1008.04 1008.29 1008.25 1008.13 1008.34 1008.53 1008.66 1008.89 1009.13 1009.50 1010.18 1010.98 1011.69 1012.38 1012.85 1013.31 1013.58 1013.85 1013.98 1014.04 1014.07
1012.51 1011.15 1010.02 1011.47 1011.52 1011.38 1010.48 1009.67 1008.32 1007.01 1005.93 1005.59 1004.76 1004.11 1003.94 1003.93 1003.94 1003.91 1004.22 1004.78 1005.47 1006.80 1008.00 1008.45 1008.59 1008.73 1008.84 1008.98 1008.96 1009.13 1009.49 1009.65 1010.09 1010.54 1011.22 1011.97 1012.80 1013.38 1013.83 1014.13 1014.34 1014.50 1014.54 1014.56
1011.43 1009.22 1011.47 1011.27 1011.12 1010.99 1010.11 1009.37 1008.55 1007.57 1006.12 1005.36 1004.72 1004.10 1003.61 1003.21 1003.09 1003.06 1003.44 1003.91 1005.08 1006.43 1008.03 1008.68 1009.06 1009.36 1009.56 1009.83 1009.85 1010.11 1010.30 1010.46 1010.76 1011.18 1011.74 1012.49 1013.09 1013.66 1014.25 1014.56 1014.79 1014.93 1014.98 1015.05
1011.27 1010.59 1010.71 1010.67 1010.39 1010.39 1009.54 1008.85 1008.79 1007.86 1007.44 1005.80 1004.99 1004.19 1003.28 1002.40 1002.56 1002.77 1003.16 1003.96 1005.02 1006.25 1007.60 1008.79 1009.38 1009.77 1010.23 1010.45 1010.56 1010.83 1010.86 1011.09 1011.36 1011.66 1012.19 1012.81 1013.47 1014.25 1014.56 1014.71 1014.82 1014.99 1015.10 1015.39
1009.89 1010.00 1010.09 1010.20 1010.01 1010.07 1008.79 1009.31 1008.72 1007.84 1006.85 1006.12 1005.02 1004.73 1002.38 1001.15 1001.76 1002.58 1003.16 1004.00 1004.81 1006.10 1007.44 1008.69 1009.53 1010.06 1010.62 1010.97 1011.22 1011.51 1011.51 1011.58 1011.70 1011.92 1012.42 1013.22 1013.89 1014.36 1014.51 1014.74 1014.93 1015.12 1015.36 1015.58
1010.18 1010.13 1009.88 1009.30 1009.52 1010.01 1009.68 1009.70 1008.87 1007.65 1006.63 1005.74 1004.87 1003.67 1001.55 1000.66 1000.68 1001.87 1002.93 1003.66 1004.76 1006.20 1007.51 1008.78 1009.57 1010.44 1011.18 1011.45 1011.77 1012.08 1012.23 1012.36 1012.42 1012.63 1013.09 1013.70 1014.19 1014.61 1014.97 1015.30 1015.50 1015.51 1015.63 1015.85
1010.49 1010.10 1009.91 1010.24 1009.66 1009.43 1009.30 1009.65 1008.17 1006.35 1005.32 1003.84 1003.22 1002.81 1001.00 999.85 999.95 1000.80 1002.10 1003.43 1004.88 1006.30 1007.58 1008.81 1009.81 1010.80 1011.47 1011.88 1012.19 1012.49 1012.73 1013.01 1013.18 1013.43 1013.83 1014.20 1014.56 1014.95 1015.41 1015.66 1015.81 1015.97 1016.09 1016.18
1009.72 1009.32 1008.93 1009.27 1008.84 1007.85 1008.12 1008.59 1006.80 1005.57 1004.33 1002.67 1002.02 1001.55 1000.79 1000.04 1000.14 1000.75 1001.88 1003.28 1004.91 1006.38 1007.57 1008.80 1009.83 1010.71 1011.45 1012.00 1012.39 1012.75 1013.05 1013.42 1013.75 1014.01 1014.41 1014.64 1014.88 1015.26 1015.58 1015.81 1016.01 1016.15 1016.27 1016.27
1009.31 1008.43 1007.59 1006.71 1007.42 1007.45 1007.41 1007.03 1005.76 1004.66 1002.26 1002.25 1001.78 1000.83 1000.74 1000.55 1000.88 1001.43 1002.30 1003.55 1005.01 1006.22 1007.45 1008.61 1009.64 1010.47 1011.34 1012.02 1012.51 1012.90 1013.33 1013.70 1014.04 1014.35 1014.69 1015.03 1015.24 1015.53 1015.81 1015.97 1016.16 1016.35 1016.38 1016.39
1009.49 1008.60 1007.18 1006.97 1006.83 1006.79 1006.43 1006.13 1005.16 1003.71 1001.83 1001.54 1001.32 1000.83 1000.16 1000.69 1001.30 1001.72 1002.60 1003.70 1004.89 1006.09 1007.32 1008.37 1009.40 1010.35 1011.22 1011.87 1012.48 1013.01 1013.51 1013.84 1014.22 1014.55 1014.94 1015.28 1015.59 1015.85 1016.03 1016.20 1016.41 1016.59 1016.60 1016.60
1009.08 1009.81 1007.50 1006.46 1005.20 1005.29 1005.80 1004.90 1003.44 1001.80 1000.83 999.93 1000.34 1000.31 999.16 1000.04 1000.78 1001.62 1002.40 1003.35 1004.49 1005.76 1006.91 1008.02 1009.15 1010.16 1011.12 1011.87 1012.55 1013.08 1013.60 1014.04 1014.46 1014.83 1015.16 1015.55 1015.86 1016.11 1016.31 1016.43 1016.62 1016.72 1016.74 1016.75
1008.48 1008.63 1006.71 1005.56 1004.24 1004.02 1004.28 1003.04 1001.61 1000.62 1000.23 999.78 999.47 1000.75 999.72 999.92 1000.57 1001.32 1002.07 1002.91 1004.14 1005.47 1006.63 1007.83 1008.94 1010.00 1011.10 1012.05 1012.69 1013.23 1013.75 1014.18 1014.63 1014.94 1015.36 1015.76 1016.07 1016.35 1016.56 1016.72 1016.83 1016.88 1016.90 1016.87
1007.26 1007.15 1005.98 1005.10 1004.61 1003.63 1002.98 1001.98 1000.98 1000.40 1000.33 1000.02 999.68 1000.68 1000.22 1000.51 1000.99 1001.31 1001.97 1002.87 1004.07 1005.32 1006.54 1007.77 1008.97 1010.10 1011.08 1012.01 1012.72 1013.24 1013.76 1014.29 1014.80 1015.13 1015.55 1015.99 1016.43 1016.67 1016.89 1016.96 1016.98 1017.01 1016.97 1016.87
1005.06 1004.79 1004.53 1002.78 1001.34 1001.29 1001.97 1001.39 1000.85 1000.78 1000.43 1000.02 999.90 1000.47 1000.64 1000.97 1001.25 1001.74 1002.26 1003.04 1004.05 1005.21 1006.34 1007.61 1008.89 1009.97 1010.90 1011.82 1012.58 1013.19 1013.82 1014.43 1014.97 1015.38 1015.83 1016.32 1016.75 1016.92 1017.02 1017.06 1017.06 1017.06 1016.98 1016.84
1005.39 1003.02 1002.42 1001.02 1000.10 1000.39 1000.49 1000.64 1000.64 1000.39 1000.42 1000.36 999.97 999.93 1000.28 1000.69 1001.12 1001.77 1002.42 1003.17 1004.20 1005.23 1006.29 1007.38 1008.63 1009.85 1010.72 1011.63 1012.49 1013.12 1013.91 1014.62 1015.15 1015.66 1016.10 1016.59 1016.79 1016.93 1017.01 1017.10 1017.13 1017.08 1016.96 1016.81
1003.60 1002.45 1000.92 1000.34 1000.00 1000.02 1000.35 1000.42 1000.31 1000.07 1000.28 1000.16 999.89 999.87 999.56 999.89 1000.67 1001.80 1002.73 1003.45 1004.29 1005.08 1006.17 1007.28 1008.48 1009.63 1010.52 1011.43 1012.42 1013.23 1014.07 1014.75 1015.30 1015.85 1016.33 1016.62 1016.83 1016.96 1017.07 1017.13 1017.14 1017.12 1016.97 1016.71
1002.88 1002.50 1001.20 1000.80 1000.04 999.87 999.92 999.40 999.64 999.95 1000.01 999.96 999.97 999.87 1000.08 1000.56 1001.33 1001.90 1002.70 1003.62 1004.50 1005.45 1006.41 1007.36 1008.46 1009.49 1010.43 1011.46 1012.36 1013.52 1014.25 1014.97 1015.56 1016.06 1016.42 1016.67 1016.82 1017.02 1017.11 1017.20 1017.21 1017.12 1016.88 1016.55
1002.07 1002.20 1001.77 1001.26 1000.46 1000.15 999.38 998.81 998.67 999.08 999.36 999.67 1000.01 1000.09 1000.33 1000.98 1002.04 1002.73 1002.98 1003.79 1004.82 1005.65 1006.53 1007.55 1008.64 1009.65 1010.69 1011.59 1012.63 1013.55 1014.47 1015.23 1015.81 1016.22 1016.49 1016.71 1016.86 1017.10 1017.23 1017.25 1017.19 1017.02 1016.68 1016.53
1001.93 1002.37 1002.50 1002.26 1001.66 1000.42 999.12 999.05 998.90 998.78 999.00 999.24 999.83 1000.34 1001.31 1002.07 1002.96 1004.64 1004.92 1004.83 1005.77 1006.53 1007.34 1008.13 1009.05 1010.17 1011.25 1012.17 1013.06 1013.98 1014.89 1015.55 1015.99 1016.36 1016.61 1016.83 1017.04 1017.25 1017.23 1017.24 1017.14 1016.87 1016.82 1016.58
1002.43 1002.74 1003.44 1003.15 1002.43 1001.22 1000.08 999.48 998.95 998.69 999.67 999.76 999.64 1000.35 1001.61 1002.59 1004.47 1005.74 1006.26 1006.48 1007.24 1007.87 1008.47 1009.28 1010.13 1011.01 1011.95 1012.89 1013.56 1014.44 1015.22 1015.79 1016.32 1016.60 1016.81 1016.91 1017.07 1017.20 1017.22 1017.11 1017.09 1016.93 1016.74 1016.43
1003.06 1003.55 1003.89 1003.78 1003.14 1001.61 1000.36 999.98 999.58 1000.06 1001.05 1000.34 1000.02 1000.30 1002.03 1003.49 1004.34 1005.71 1006.87 1007.92 1008.58 1009.21 1009.80 1010.47 1011.18 1011.94 1012.71 1013.35 1014.02 1014.85 1015.51 1016.22 1016.59 1016.79 1016.83 1016.95 1017.01 1017.04 1016.94 1017.00 1016.97 1016.80 1016.64 1016.33
1002.74 1003.29 1003.55 1003.73 1003.40 1002.31 1000.52 1000.65 1000.87 1001.12 1000.99 1001.02 1001.29 1001.98 1003.31 1004.66 1005.80 1006.95 1008.06 1008.99 1009.72 1010.29 1010.79 1011.28 1011.88 1012.69 1013.22 1013.79 1014.39 1015.33 1016.07 1016.47 1016.67 1016.76 1016.89 1016.98 1016.90 1016.85 1016.84 1017.01 1016.94 1016.64 1016.47 1016.06
1002.14 1001.88 1002.14 1002.38 1001.95 1001.19 1000.91 1001.08 1001.17 1001.34 1001.78 1002.19 1002.82 1003.55 1004.29 1005.65 1006.97 1008.02 1008.96 1009.70 1010.38 1010.82 1011.28 1011.87 1012.49 1013.24 1013.81 1014.31 1014.83 1015.73 1016.25 1016.51 1016.72 1016.90 1016.94 1016.91 1016.80 1016.82 1016.90 1016.98 1016.77 1016.58 1016.24 1015.93
1000.83 1000.89 1001.19 1001.51 1001.55 1001.47 1001.48 1001.61 1001.72 1001.97 1002.53 1003.16 1003.79 1004.53 1005.38 1006.47 1007.59 1008.50 1009.33 1010.13 1010.75 1011.27 1011.76 1012.29 1012.95 1013.69 1014.42 1014.86 1015.32 1015.83 1016.28 1016.52 1016.80 1016.89 1016.92 1016.93 1017.00 1017.04 1016.90 1016.68 1016.49 1016.33 1016.08 1015.76
1000.27 1000.56 1000.72 1001.37 1001.67 1001.94 1002.02 1002.18 1002.36 1002.81 1003.37 1004.09 1004.82 1005.50 1006.32 1007.07 1008.07 1008.74 1009.59 1010.31 1010.92 1011.55 1012.14 1012.69 1013.28 1013.96 1014.76 1015.25 1015.72 1016.12 1016.36 1016.57 1016.80 1016.94 1017.01 1017.12 1017.15 1017.07 1016.81 1016.58 1016.34 1016.10 1015.86 1015.48
1000.02 999.81 1000.27 1000.15 1000.16 1000.62 1001.31 1002.22 1002.72 1003.53 1004.38 1005.14 1005.67 1006.64 1007.25 1007.71 1008.46 1009.25 1010.03 1010.57 1011.22 1011.91 1012.47 1013.04 1013.61 1014.25 1014.90 1015.35 1015.83 1016.25 1016.41 1016.64 1016.91 1017.14 1017.32 1017.37 1017.19 1016.96 1016.76 1016.51 1016.07 1015.92 1015.51 1015.16
Wind_Speed
11 10 19 23 22 18 15 17 16 17 17 21 20 20 15 13 11 10 8 6 10 11 8 5 5 6 7 7 8 7 8 8 5 4 7 6 5 5 5 5 7 7 7 7
11 22 25 14 17 18 21 18 17 15 20 20 19 17 16 11 15 14 9 9 11 12 8 6 7 7 7 7 8 8 8 9 8 6 5 5 5 5 5 4 6 7 7 8
19 20 16 18 19 20 22 23 16 15 14 9 7 12 10 12 15 9 11 10 15 16 11 8 7 8 8 8 8 8 8 9 9 9 8 6 5 4 4 4 4 5 7 7
16 18 20 20 23 20 23 23 21 19 18 12 11 5 16 22 16 10 8 6 16 14 11 8 8 8 8 6 7 8 7 8 7 7 6 7 5 5 3 4 3 5 7 7
11 11 18 22 21 20 20 17 23 27 11 3 6 6 10 10 19 10 9 10 15 14 12 10 9 9 8 7 7 7 8 8 8 8 8 7 7 4 3 3 5 5 5 7
14 9 13 17 21 20 21 15 20 18 11 9 14 10 7 7 14 13 9 10 14 14 12 10 9 9 7 6 7 7 8 8 8 9 9 8 8 6 5 4 4 3 4 4
7 19 8 4 12 20 22 14 8 8 7 5 16 8 7 4 8 15 15 14 15 13 12 12 10 9 7 8 7 7 7 8 8 9 8 8 8 8 7 5 4 5 3 3
10 8 15 15 11 15 25 23 4 6 6 7 14 7 5 8 8 11 13 15 14 13 11 11 10 9 8 8 7 8 8 8 8 8 8 7 7 5 4 5 4 3 3 2
3 10 5 10 15 16 11 10 16 7 10 7 4 4 5 8 6 10 13 16 15 14 13 12 10 9 9 8 8 8 8 8 8 8 7 7 7 7 5 6 5 3 4 3
3 7 6 12 8 9 7 8 11 4 7 8 6 9 5 10 9 7 14 16 14 13 14 11 11 10 7 8 7 8 8 8 7 8 6 6 6 6 5 6 5 5 5 5
5 3 1 1 9 13 9 7 10 5 5 6 6 1 11 10 13 11 11 16 16 14 14 12 10 10 9 8 7 7 8 8 7 7 6 7 6 5 5 5 5 4 4 5
9 5 5 6 4 12 9 8 11 3 2 1 5 2 6 10 8 10 9 16 15 13 12 11 10 10 9 8 7 7 7 7 7 7 7 7 5 5 5 5 5 5 5 5
14 6 2 5 8 1 4 7 5 5 3 3 4 3 7 8 8 5 9 12 14 13 11 10 10 10 8 8 8 7 7 7 7 6 7 6 6 6 5 5 4 5 5 5
7 6 6 6 6 12 7 7 6 5 1 2 2 6 6 7 9 7 8 10 13 13 12 10 10 9 8 8 8 7 7 7 6 6 6 7 6 4 3 3 4 4 5 6
5 5 14 11 18 17 14 9 8 9 7 1 3 7 9 10 10 9 8 9 13 12 12 11 10 9 8 8 8 8 7 7 6 6 7 5 3 3 2 3 4 5 5 6
12 7 13 10 6 12 14 13 12 10 7 7 9 6 8 8 9 9 9 9 11 12 12 10 10 10 9 9 8 8 8 7 7 6 6 4 3 2 2 3 4 5 6 7
6 4 5 4 4 5 4 9 14 10 8 8 10 8 5 6 7 9 10 10 9 9 10 10 9 8 8 9 10 8 8 7 6 6 5 4 2 2 3 4 5 6 6 6
7 3 3 3 2 1 2 1 5 11 8 10 9 5 4 8 7 10 6 8 9 8 8 9 8 8 8 8 9 9 8 7 6 5 4 3 1 2 3 4 5 5 5 6
10 2 1 1 3 6 1 1 1 7 9 8 8 9 8 10 8 8 10 11 10 9 8 7 8 9 10 9 10 10 7 7 6 5 4 3 3 3 4 5 6 6 6 6
6 7 3 4 1 3 2 2 6 3 3 6 6 9 15 7 5 5 7 10 11 10 8 10 11 11 10 8 8 8 7 6 6 4 3 2 1 3 4 4 6 4 5 7
5 3 5 4 2 7 2 3 5 5 4 6 7 10 11 6 2 13 12 10 8 8 10 9 9 8 8 7 7 8 7 6 5 3 1 1 2 3 4 4 4 5 6 6
6 5 4 3 2 7 6 4 2 2 2 4 8 9 18 15 13 13 12 10 10 9 8 8 9 8 7 7 8 7 7 6 4 2 0 2 3 3 3 5 4 6 6 6
8 7 6 8 6 1 3 3 1 3 4 5 11 11 16 14 12 11 10 9 8 8 7 7 9 8 6 6 7 7 6 5 3 1 1 3 4 5 4 5 6 5 5 5
4 6 2 5 4 5 5 3 1 5 8 9 9 11 11 14 11 10 9 8 7 6 6 7 8 7 7 6 7 7 6 5 3 1 3 4 4 5 5 4 4 4 4 5
2 7 6 2 2 3 0 4 7 10 11 11 9 10 11 12 9 9 8 8 7 7 5 6 7 7 7 7 6 6 5 4 3 4 4 4 3 4 5 4 4 4 5 7
5 6 5 5 10 4 6 9 10 13 11 10 14 10 9 10 9 8 7 6 6 7 6 5 6 8 7 7 7 6 5 4 4 4 3 4 3 4 4 5 6 9 15 19
Wind_Direction
206 211 219 211 213 229 250 251 239 239 210 234 233 226 223 230 249 256 217 243 149 119 124 142 129 115 87 91 110 109 111 119 111 93 98 85 91 77 66 61 62 54 45 49
219 227 226 226 236 239 240 251 268 243 247 220 237 226 228 224 245 225 216 204 141 120 134 150 128 99 92 84 70 66 68 73 73 82 87 94 97 93 100 79 62 61 48 41
216 236 232 238 234 236 239 238 244 255 230 269 239 247 243 232 232 207 223 187 140 142 144 153 121 108 88 79 77 85 84 84 89 95 97 101 98 76 70 74 76 64 62 44
235 239 239 228 233 230 234 238 233 250 254 197 201 254 216 229 224 224 189 204 142 141 139 149 134 113 98 93 88 84 90 104 114 125 125 117 111 110 118 114 104 94 83 63
219 214 223 230 235 239 239 243 220 240 237 169 247 221 248 243 208 189 193 196 145 141 142 142 129 117 110 91 90 85 78 72 75 84 91 97 103 105 96 83 86 93 85 84
247 261 230 224 229 234 250 257 275 241 210 222 201 205 247 200 172 175 183 150 139 138 135 127 116 111 111 103 98 98 91 79 73 76 75 88 100 99 86 64 63 53 72 70
228 243 239 321 252 223 228 210 226 218 192 222 190 181 252 54 120 172 165 143 140 138 138 133 134 132 134 126 122 116 104 94 86 83 79 81 86 87 77 72 61 54 41 36
223 240 194 189 234 212 206 209 209 165 195 153 163 204 216 146 111 118 137 139 141 147 142 145 146 142 141 143 142 123 113 107 98 93 89 80 80 84 79 72 59 46 56 27
262 232 205 201 210 185 180 218 239 264 189 125 187 125 49 111 92 133 141 145 155 156 149 154 147 141 145 143 143 130 119 111 107 107 98 91 80 78 78 64 59 35 33 12
182 279 193 195 206 199 208 203 204 233 164 164 181 184 178 161 154 157 152 159 158 156 152 155 148 143 143 145 132 126 126 122 117 104 103 94 86 75 67 69 48 35 13 18
170 211 289 256 187 168 184 213 234 109 231 145 129 190 153 160 158 171 165 162 162 162 159 154 148 142 135 125 135 130 119 122 117 116 105 91 81 69 70 65 43 23 6 5
175 272 274 245 281 177 175 229 234 235 36 303 115 139 76 101 122 153 177 164 159 156 153 149 143 135 133 140 142 136 139 128 122 116 103 101 89 73 58 49 33 19 5 348
160 217 196 342 151 41 212 227 281 353 314 216 69 176 110 107 110 142 150 146 152 146 144 146 139 143 145 150 148 144 139 125 124 116 114 102 81 61 43 37 20 4 347 330
188 181 210 257 107 130 175 208 242 203 342 358 60 129 139 136 132 129 138 142 146 151 153 154 150 150 152 151 149 144 126 123 119 112 103 92 80 64 47 20 359 341 331 323
231 250 212 243 131 155 168 184 242 207 223 39 237 137 170 166 158 161 153 134 144 160 162 160 150 152 153 146 141 130 124 122 127 117 99 98 98 78 30 8 344 323 316 303
219 298 313 87 74 154 172 187 204 218 211 242 272 303 156 168 132 133 159 159 167 169 159 147 148 153 150 144 137 126 126 122 120 116 117 116 85 34 11 347 315 311 303 298
183 251 313 52 83 81 350 205 196 209 217 212 222 238 102 96 133 151 161 165 158 156 150 147 151 147 139 136 131 129 125 123 121 119 113 109 88 14 345 322 323 312 307 313
185 218 316 4 31 100 224 53 231 204 209 214 238 249 20 149 83 54 58 123 108 118 127 130 129 117 114 114 115 113 114 123 121 121 128 111 74 6 337 333 318 316 311 311
172 153 332 113 261 321 232 16 195 178 235 209 205 215 110 107 68 31 21 73 92 97 101 104 103 106 103 103 108 112 111 118 131 117 101 73 39 349 333 317 316 324 323 313
99 96 61 0 133 238 80 349 314 52 301 347 242 185 140 126 129 182 106 79 72 66 74 88 93 98 102 107 111 118 130 130 119 113 89 54 349 310 305 317 334 307 314 300
132 101 204 204 327 305 102 147 314 108 253 326 327 131 135 94 171 127 102 88 88 90 92 92 96 107 112 118 128 115 116 116 119 121 125 318 307 307 324 331 308 297 303 296
166 146 164 123 166 265 144 59 146 178 349 22 63 92 100 102 96 100 102 104 102 105 102 102 101 105 108 122 109 116 116 129 137 130 102 283 319 340 323 309 300 301 297 301
170 196 171 187 205 206 81 83 138 100 118 74 93 102 111 110 110 115 117 115 119 116 114 107 114 110 106 101 118 119 135 132 125 144 306 354 351 329 317 308 303 305 308 312
201 201 222 143 191 182 134 75 42 115 104 93 96 106 111 118 120 118 117 120 118 121 126 120 123 124 119 96 94 122 129 128 131 51 13 349 336 319 325 309 302 314 308 305
186 135 170 97 99 65 209 175 123 97 96 92 81 99 113 116 116 122 126 128 129 130 127 131 140 137 130 135 126 118 121 109 70 35 359 335 331 324 316 312 307 307 292 308
191 185 160 219 180 172 162 147 125 118 120 111 107 82 82 99 103 103 103 116 125 131 132 130 120 119 136 137 128 131 115 93 65 22 337 319 325 329 316 309 308 306 317 322